Regional Weather Roundup
Issued by NWS

Home | Current Version | Previous Version | Graphics & Text | Print | Product List | Glossary Off
Versions: 1 2 3 4 5 6 7 8 9 10 11 12 13 14 15 16 17 18 19 20 21 22 23 24 25 26 27 28 29 30 31 32 33 34 35 36 37 38 39 40 41 42 43 44 45 46 47 48 49 50

000
ASUS43 KDTX 191110
RWRMI
MICHIGAN HOURLY REGIONAL WEATHER ROUNDUP
NATIONAL WEATHER SERVICE DETROIT/PONTIAC MI
700 AM EDT SAT AUG 19 2017

NOTE: "FAIR" INDICATES FEW OR NO CLOUDS BELOW 12,000 FEET WITH NO
SIGNIFICANT WEATHER AND/OR OBSTRUCTION TO VISIBILITY.

MIZ047>049-052>055-059>063-066>070-074>076-081>083-191200-
SOUTHEAST LOWER MICHIGAN

CITY           SKY/WX    TMP DP  RH WIND       PRES   REMARKS
ADRIAN         CLOUDY    63  62  97 CALM      29.90R
ALMA           MOCLDY    59  58  96 CALM      29.89S FOG
ANN ARBOR      CLOUDY    61  60  97 S3        29.88R
BAD AXE        CLEAR     59  58  96 W3        29.85R
CARO           PTCLDY    60  58  94 W5        29.86R FOG
DETROIT CITY   MOCLDY    65  60  84 W5        29.88R
DETROIT        CLOUDY    65  61  87 SW5       29.89R
FLINT          CLOUDY    62  59  90 W7        29.88R
GROSSE ILE     LGT RAIN  66  61  84 SW5       29.88R
HILLSDALE      CLOUDY    61  59  94 SW3       29.90R
HOWELL         CLOUDY    62  59  91 CALM      29.88S

CITY           SKY/WX    TMP DP  RH WIND       PRES   REMARKS
JACKSON        CLOUDY    62  59  90 S3        29.89R
LAMBERTVILLE   CLOUDY    63  62  96 NW3       29.88R
LANSING        CLOUDY    63  59  87 W3        29.89R
LAPEER         MOCLDY    62  60  93 W5        29.88R
MASON          CLOUDY    63  60  88 CALM      29.89S
MONROE         CLOUDY    63  62  97 CALM      29.87R
MT. CLEMENS    PTCLDY    63  62  94 SW6       29.86R
PONTIAC        CLOUDY    63  61  93 SW7       29.87R
PORT HOPE        N/A     62  58  86 VRB5      29.82R
PORT HURON     CLOUDY    63  59  88 CALM      29.86S
TRI CITIES     CLOUDY    60  60 100 W7        29.88R
MIDLAND        FAIR      58  57  99 CALM      29.87R
TROY           MOCLDY    64  60  88 SW5       29.90R
SAGINAW HB     MOCLDY    61  59  94 W5        29.87R
$$
MIZ043>046-050>051-056>058-064>065-071>073-077>080-191200-
SOUTHWEST LOWER MICHIGAN

CITY           SKY/WX    TMP DP  RH WIND       PRES   REMARKS
BATTLE CREEK   CLOUDY    63  62  97 CALM      29.90R
BENTON HARBOR  CLEAR     68  60  75 CALM      29.90R
BIG RAPIDS     CLOUDY    56  55  94 W3        29.89S
COLDWATER      PTCLDY    63  63 100 CALM      29.90R
FREMONT        FOG       56  56 100 CALM      29.90R VSB 3/4
HOLLAND        FOG       59  58  96 CALM      29.90R VSB 1/4
GRAND RAPIDS   PTCLDY    60  59  96 CALM      29.89R
IONIA          MOCLDY    61  59  94 CALM      29.89R
KALAMAZOO      MOCLDY    62  58  86 VRB5      29.90R
LUDINGTON      PTCLDY    57  57  98 CALM      29.89R
MARSHALL       CLOUDY    60  59  98 CALM      29.89R
MOUNT PLEASANT PTCLDY    61  58  92 W3        29.87S
MUSKEGON       MOCLDY    59  57  93 CALM      29.90R
SOUTH HAVEN    CLEAR     65  63  94 CALM      29.90R
$$
MIZ016>042-191200-
NORTHERN LOWER MICHIGAN

CITY           SKY/WX    TMP DP  RH WIND       PRES   REMARKS
ALPENA         CLOUDY    62  60  93 W5        29.82R
BEAVER ISLAND  PTCLDY    60  58  91 CALM      29.85R
BELLAIRE       CLOUDY    60  58  93 CALM      29.86R
CADILLAC       PTCLDY    58  55  90 W3        29.89R
CHARLEVOIX     MOCLDY    63  59  88 NW5       29.88R
FRANKFORT      CLEAR     58  58 100 CALM      29.88R
GAYLORD        CLOUDY    59  56  89 W5        29.86R
GRAYLING       CLOUDY    58  57  94 W5        29.87R
HARBOR SPRINGS MOCLDY    60  58  94 NW5       29.85R
HOUGHTON LAKE  CLOUDY    60  57  89 W8        29.87S
MANISTEE       CLOUDY    55  54  96 CALM      29.89R
OSCODA         CLOUDY    62  58  87 W12       29.82S
PELLSTON       MOCLDY    60  58  92 W5        29.84R
ROGERS CITY    CLOUDY    61  57  88 W6        29.82R
TRAVERSE CITY  MOCLDY    60  58  92 S5        29.85R
$$
MIZ007>008-015-191200-
EASTERN UPPER MICHIGAN

CITY           SKY/WX    TMP DP  RH WIND       PRES   REMARKS
KINROSS        MOCLDY    57  56  96 W9        29.82R
MACKINAC ISLAN PTCLDY    58  58 100 NW6       29.82R
NEWBERRY       MOCLDY    54  53  97 W3        29.82S FOG
S. S. MARIE    PTCLDY    60  57  89 NW6       29.80R
MUNISING         N/A     57  57 100 S8        29.82R
$$
MIZ004>006-011>014-085-191200-
CENTRAL UPPER MICHIGAN

CITY           SKY/WX    TMP DP  RH WIND       PRES   REMARKS
MANISTIQUE     CLOUDY    55  49  81 CALM      29.83S
ESCANABA       MOCLDY    55  54  96 W5        29.85R
MENOMINEE      CLEAR     57  56  96 W3        29.88R
SAWYER-GWINN   PTCLDY    54  52  94 CALM      29.85R
$$
MIZ001>003-009>011-084-191200-
WESTERN UPPER MICHIGAN

CITY           SKY/WX    TMP DP  RH WIND       PRES   REMARKS
IRON MOUNTAIN  MOCLDY    58  54  86 NW6       29.87R
HOUGHTON       MOCLDY    61  57  88 W13       29.81R
COPPER HARBOR    N/A     63  58  83 VRB6      29.78S
IRONWOOD       CLEAR     58  55  90 W7        29.88S
$$

ABBREVIATIONS USED IN REMARKS
   TC - TEMPERATURE IN CELSIUS
  WCI - WIND CHILL INDEX
   HX - HEAT INDEX
  VSB - VISIBILITY




USA.gov is the U.S. government's official web portal to all federal, state and local government web resources and services.